Location: Czerwionka
(50.1503°N, 18.6799°E)
Time: 01:46:01
(UTC+00:00)

Daily predictions for brighter satellites

Satellite Brightness Start Highest point End
(mag) Time Altitude Azimuth Time Altitude Azimuth Time Altitude Azimuth
ATLAS 3B R/B 4.3 01:43:18 29° NE 01:43:18 29° NE 01:47:44 10° E
CENTAUR R/B 3.5 02:14:20 56° SE 02:14:20 56° SE 02:21:01 10° SE
ATLAS 2AS CENTAUR R/B 4.2 02:27:56 18° SSE 02:32:56 36° ESE 02:39:56 10° NE
Cosmos 2297 Rocket 4.4 02:48:42 16° N 02:48:42 16° N 02:49:55 10° NNE
Lacrosse 5 3.4 02:52:48 30° SE 02:52:51 30° SE 02:57:13 10° ENE
ATLAS CENTAUR R/B 3.8 02:55:54 19° E 02:55:54 19° E 02:57:22 10° E
Cosmos 2263 Rocket 2.5 03:01:26 65° ENE 03:01:26 65° ENE 03:06:31 10° NNE
SJ 16-02 2.6 03:08:47 40° E 03:08:47 40° E 03:12:35 10° NE
FENGYUN 3A 4.0 03:11:53 10° NNE 03:17:17 64° E 03:22:38 10° S
Cosmos 2181 Rocket 4.2 03:11:58 10° N 03:18:12 70° ENE 03:24:19 10° SSE
Cosmos 1766 Rocket 4.5 03:20:46 45° NE 03:20:46 45° NE 03:24:05 10° NNE
Cosmos 1709 Rocket 4.0 03:16:28 10° S 03:22:51 85° E 03:29:17 10° N
USA 307 3.9 03:28:58 41° NE 03:28:58 41° NE 03:32:12 10° ENE
CZ-4C R/B 3.4 03:25:49 13° S 03:29:46 38° ESE 03:35:09 10° NE
COSMO-SKYMED 1 3.2 03:25:33 10° SSE 03:29:47 54° ENE 03:30:47 43° NNE
BREEZE-M DEB (TANK) 4.1 03:30:34 51° W 03:32:14 67° SSW 03:36:03 10° ESE
Meteor 2-3 Rocket 3.9 03:26:46 10° S 03:32:27 71° E 03:38:15 10° NNE
ATLAS 3B R/B 2.7 03:30:35 45° NW 03:33:01 84° NE 03:40:12 10° SE
Cosmos 1943 4.2 03:36:00 31° SSW 03:36:00 31° SSW 03:39:09 10° S
USA 308 3.7 03:35:04 44° NNE 03:35:04 44° NNE 03:38:33 10° ENE
Lacrosse 4 Rocket 3.1 03:38:11 24° S 03:38:11 24° S 03:40:07 10° SSE
CZ-4B R/B 4.4 03:36:56 10° NNE 03:41:13 41° E 03:45:23 10° SSE
Cosmos 1689 Rocket 4.3 03:45:07 10° SSE 03:46:15 21° SE 03:46:15 21° SE
SAR-Lupe-4 4.4 03:45:50 10° SSE 03:48:18 43° SSE 03:48:18 43° SSE
ALOS 2.1 03:48:19 10° N 03:52:58 66° WNW 03:53:16 64° W
EXPRESS MD2 3.2 03:53:25 85° SW 03:53:29 86° S 03:59:18 10° E
SKYMED 3 4.4 03:49:27 10° SSE 03:53:47 89° WSW 03:55:05 46° NNW
Cosmos 923 Rocket 4.0 03:53:37 55° W 03:53:58 57° WSW 03:59:09 10° S
deb Chang Zheng 4 3.6 03:49:53 10° NNE 03:54:15 82° ESE 03:58:36 10° SSW
Cosmos 990 Rocket 4.4 03:50:15 10° S 03:55:25 63° ESE 04:00:38 10° NNE
Cosmos 2227 Rocket 4.0 03:57:13 15° NNW 03:57:13 15° NNW 03:59:31 10° N
METEOR-M 4.0 03:52:18 10° NNE 03:57:40 79° WNW 04:03:00 10° SSW
Cosmos 2344 4.3 03:53:01 25° NW 03:59:24 83° SW 04:12:20 10° SE
Cosmos 2227 4.4 04:01:36 44° WNW 04:02:16 47° NW 04:07:42 10° NNE
CENTAUR R/B 3.8 04:01:36 31° WSW 04:02:25 31° WSW 04:09:49 10° S
USA 305 3.3 04:02:46 47° NNW 04:03:18 50° N 04:07:30 10° E
NOSS 3-4 (A) 3.3 04:00:50 33° WSW 04:03:42 74° NW 04:10:11 10° NE
NOSS 3-4 (C) 3.3 04:00:54 32° WSW 04:03:49 74° NW 04:10:19 10° NE
ARGOS Delta rocket 4.1 03:59:01 10° N 04:04:01 49° WNW 04:04:43 45° W
Meteor 1-31 Rocket 2.8 04:01:51 10° N 04:05:09 57° NNW 04:05:09 57° NNW
SAR-Lupe-1 4.3 04:02:52 10° S 04:05:49 53° SSW 04:05:49 53° SSW
Cosmos 405 Rocket 4.2 04:04:51 10° SSE 04:08:16 37° E 04:11:45 10° NNE
Cosmos 2184 Rocket 4.2 04:03:56 10° S 04:10:14 76° E 04:16:38 10° NNE
Cosmos 158 Rocket 4.2 04:10:38 40° WSW 04:10:38 40° WSW 04:15:16 10° S
Cosmos 1812 3.2 04:07:44 14° N 04:10:57 58° ENE 04:14:44 10° SSE
Cosmos 2228 Rocket 3.6 04:06:37 10° N 04:11:02 61° ENE 04:15:22 10° SSE
USA 306 3.3 04:10:52 43° NW 04:11:46 51° N 04:15:59 10° E
Cosmos 1515 Rocket 3.5 04:09:36 27° NNW 04:11:57 69° W 04:16:23 10° S
Meteor 2-17 Rocket 4.3 04:08:32 10° SSW 04:14:34 74° WNW 04:20:40 10° N
SL-4 R/B 1.8 04:15:03 55° WNW 04:15:42 69° N 04:19:24 10° E
Cosmos 1782 3.0 04:16:34 47° WSW 04:16:34 47° WSW 04:20:17 10° SSW
PSLV R/B 3.8 04:13:08 10° S 04:17:15 69° WSW 04:19:23 27° NNW
SKYMED 2 3.7 04:13:39 10° S 04:17:53 52° W 04:19:24 35° NW
Cosmos 1844 Rocket 3.1 04:13:39 10° SSW 04:19:15 66° ESE 04:24:54 10° NNE
Cosmos 1680 Rocket 3.8 04:20:02 32° WNW 04:21:52 44° WSW 04:26:53 10° S
SJ-12 3.8 04:18:00 10° N 04:22:03 64° WNW 04:26:03 10° SSW
ATLAS 2AS CENTAUR R/B 3.0 04:15:33 10° SW 04:23:32 74° NW 04:31:22 10° NE
FALCON 9 DEB 3.2 04:24:39 39° SW 04:25:37 64° SSE 04:28:48 10° ENE
COSMOS 2455 4.3 04:20:21 10° S 04:25:51 39° ESE 04:31:24 10° NE
FALCON 9 DEB 3.5 04:26:37 43° NW 04:27:23 54° N 04:30:47 10° E
Cosmos 2297 Rocket 4.2 04:30:30 11° NNW 04:30:57 11° NNW 04:32:40 10° N
ATLAS 5 CENTAUR R/B 2.9 04:31:19 26° NNW 04:31:19 26° NNW 04:33:30 10° NNE
ADEOS 4.0 04:27:43 10° N 04:32:34 40° WNW 04:37:24 10° SW
Cosmos 1844 4.0 04:27:25 10° SSW 04:32:55 68° ESE 04:38:28 10° NNE
ATLAS CENTAUR R/B 1.5 04:32:06 37° W 04:33:02 45° SW 04:36:46 10° SSE
RESURS DK-1 2.2 04:29:15 10° SSW 04:33:25 82° WNW 04:37:37 10° NNE
Meteor PRIRODA 3.6 04:31:17 10° N 04:35:01 63° WNW 04:38:42 10° SSW
Lacrosse 5 1.8 04:32:02 21° WSW 04:35:29 77° NNW 04:40:35 10° ENE
Meteor 2-6 Rocket 4.1 04:31:21 10° NNW 04:36:42 65° W 04:42:04 10° S
Cosmos 1500 Rocket 3.4 04:33:11 10° SSW 04:37:30 78° W 04:41:52 10° N
ERBS 3.4 04:38:12 26° NNW 04:38:39 27° N 04:41:33 10° NE
H-2A R/B 2.7 04:35:01 10° NNE 04:38:57 89° ESE 04:42:50 10° SSW
Cosmos 1437 Rocket 2.7 04:36:58 10° N 04:40:47 79° E 04:44:33 10° SSE
Okean O Rocket 3.5 04:38:32 10° NNE 04:42:34 33° E 04:46:36 10° SSE
Gbstr 26 Del rocket 4.0 04:43:33 21° WSW 04:44:47 25° SW 04:48:01 10° SSE
Cosmos 2263 Rocket 3.1 04:43:11 22° WNW 04:45:18 28° NW 04:50:10 10° NNE
SMAP 4.5 04:40:54 10° NNE 04:45:19 41° E 04:49:43 10° SSE
SJ 16-02 2.3 04:45:52 24° W 04:47:08 27° NW 04:50:57 10° N
Nadezhda 3 Rocket 3.9 04:42:44 10° NNW 04:49:03 74° W 04:55:16 10° S
ATLAS 5 CENTAUR R/B 4.4 04:46:49 10° SSE 04:49:52 21° ESE 04:53:10 10° ENE
Cosmos 1898 Rocket 3.6 04:49:20 10° SW 04:54:34 54° WNW 04:59:50 10° NNE
CZ-2C R/B 3.1 04:50:13 10° SSE 04:55:38 66° ENE 05:00:58 10° N
Envisat 3.0 04:52:57 10° NNE 04:58:05 86° ESE 05:03:10 10° SSW
Sich 1 3.4 04:53:58 10° S 04:58:23 70° E 05:02:49 10° NNE
FALCON 9 DEB 2.8 04:56:36 18° WSW 04:58:52 86° NNW 05:02:06 10° ENE
FALCON 9 DEB 2.8 04:56:45 18° WSW 04:58:59 83° NNW 05:02:13 10° ENE
SJ-7 4.3 04:55:31 10° N 04:59:34 70° WNW 05:03:39 10° SSW
Cosmos 1743 Rocket 3.8 04:57:15 10° SSW 05:01:33 45° WNW 05:05:53 10° N
H-2A R/B 2.3 04:57:41 10° NNE 05:01:34 82° ESE 05:05:23 10° SSW
Cosmos 2082 Rocket 3.4 04:59:11 10° NNW 05:04:34 40° NE 05:09:54 10° ESE
CZ-4B R/B 3.9 05:00:47 10° NNE 05:06:05 58° ESE 05:11:25 10° S
COSMO-SKYMED 1 4.0 05:03:12 10° SW 05:06:17 19° W 05:07:59 15° WNW
NOSS 7 (H) 4.0 05:03:24 10° SW 05:06:35 63° NW 05:09:30 10° NE
NOSS 7 (E) 4.3 05:03:46 10° SW 05:07:22 87° SE 05:10:28 10° NE
USA 307 3.1 05:05:08 17° WNW 05:08:26 67° NNE 05:12:43 10° E
Cosmos 1937 Rocket 3.6 05:06:36 10° SW 05:11:38 52° WNW 05:16:45 10° NNE
CZ-4 R/B 4.5 05:11:22 10° NE 05:14:10 17° E 05:16:57 10° SE
Cosmos 1862 Rocket 4.3 05:10:05 10° N 05:14:30 56° ENE 05:18:51 10° SSE
USA 308 3.0 05:11:14 15° WNW 05:14:47 70° NNE 05:19:05 10° ESE
Cosmos 1833 Rocket 3.0 05:09:19 10° NNW 05:14:58 71° ENE 05:20:34 10° SE
CZ-4B R/B 4.0 05:12:17 10° N 05:16:06 28° WNW 05:19:52 10° WSW
MOS 1 Rocket 4.0 05:12:00 10° SSW 05:16:30 38° W 05:21:18 10° NNW
Cosmos 2154 Rocket 4.1 05:11:21 10° SSW 05:17:26 56° WNW 05:23:38 10° N
CZ-4C R/B 2.4 05:12:58 10° WSW 05:18:05 52° NW 05:24:17 10° NE
Meteor 1-27 Rocket 3.8 05:12:32 10° NNW 05:18:12 61° W 05:23:58 10° S
Cosmos 1805 Rocket 3.7 05:16:19 10° SSW 05:20:41 56° WNW 05:25:06 10° N
FALCON 9 DEB 2.9 05:18:32 10° W 05:21:44 69° NNW 05:24:58 10° ENE
Cosmos 494 Rocket 4.2 05:17:27 10° NNW 05:22:39 74° ENE 05:27:46 10° SSE
ATLAS 3B R/B 3.8 05:17:52 11° WNW 05:23:06 27° WSW 05:28:54 10° SSW
Cosmos 468 4.5 05:18:37 10° NNW 05:23:54 76° WSW 05:29:06 10° SSE
COSMOS 2406 3.3 05:19:15 10° NNW 05:25:01 84° WSW 05:30:48 10° SSE
Aureole 2 Rocket 2.3 05:23:03 10° SW 05:25:22 32° WNW 05:27:45 10° N
Cosmos 2150 Rocket 4.4 05:21:27 10° SSW 05:26:44 70° ESE 05:31:58 10° NNE
YAOGAN 6 2.9 05:23:48 10° N 05:27:08 40° WNW 05:30:24 10° SW
Cosmos 2298 Rocket 4.3 05:21:55 10° SSW 05:27:12 76° ESE 05:32:30 10° NNE
Cosmos 1048 Rocket 4.0 05:21:54 10° NNW 05:27:12 74° WSW 05:32:23 10° SSE
Cosmos 1666 Rocket 3.6 05:23:24 10° S 05:27:43 88° ESE 05:32:06 10° N
Cosmos 1862 4.3 05:24:56 10° SW 05:28:25 27° WNW 05:31:56 10° N
ALOS 4.1 05:28:01 10° NW 05:29:31 11° NW 05:31:00 10° WNW
Genesis I 3.8 05:27:02 10° WSW 05:30:36 36° NW 05:34:12 10° NNE
DMSP B5D2-2 4.1 05:26:16 10° SSE 05:31:30 83° WSW 05:36:45 10° NNW
Cosmos 2341 Rocket 4.0 05:27:09 10° SSW 05:33:20 75° W 05:39:36 10° N
Cosmos 2278 Rocket 3.2 05:29:13 10° S 05:34:41 53° ESE 05:40:12 10° NE
FengYun 1-2 T 4.5 05:34:07 10° NNE 05:39:39 78° ESE 05:45:09 10° S
SL-8 Rocket 4.0 05:34:46 10° S 05:40:56 84° W 05:47:09 10° N
USA 305 3.0 05:39:16 10° WNW 05:43:36 90° E 05:47:55 10° ESE
Okean 1 3.6 05:39:36 10° N 05:43:40 74° E 05:47:42 10° SSE
BREEZE M DEB (TANK) 2.9 05:39:08 10° WSW 05:44:04 47° SSE 05:46:21 10° E
Cosmos 405 Rocket 3.9 05:41:36 10° WSW 05:44:24 20° WNW 05:47:15 10° NNW
NOAA 12 4.1 05:39:39 10° N 05:44:55 70° WNW 05:50:07 10° SSW
Cosmos 1727 Rocket 4.3 05:40:45 10° N 05:47:05 80° E 05:53:26 10° SSE
Meteor 1-20 Rocket 4.4 05:42:08 10° S 05:47:48 87° E 05:53:38 10° NNE
